Submittal Forms
Current Contests
Recent Contests

Club Activity Tracker - Kentucky Contest Group (from club selection on form)

Recent postings for the selected club or group are listed below. Other than the call used, all calls listed are only those associated with the club or group. Click on a call to see the details of the posting.
Status Key: new=new posting, update=update prior posting, move=change club/group, delete=delete prior posting.

Sort by   for past

TimestampCallContestClassPowerScoreStatus
2020-05-28 04:06:16K4FNCWopsTSingle OpLP9,800new5615
2020-05-28 04:05:26KM4FOCWopsTSingle OpLP2,244new5615
2020-05-28 03:46:33KC4WQCWopsTSingle OpLP3,080new5615
2020-05-27 21:07:00K4AVXCWopsTSingle OpHP1,444new5614
2020-05-27 20:13:57K4WWCWopsTSingle OpHP11,877new5614
2020-05-27 20:06:02KM4FOCWopsTSingle OpLP2,496new5614
2020-05-27 20:01:11ND4YCWopsTSingle OpHP4,480new5614
2020-05-27 19:56:23KE4KYCWopsTSingle OpHP625new5614
2020-05-27 19:41:51KC4WQCWopsTSingle OpLP1,600new5614
2020-05-27 14:14:30K4WWCWopsTSingle OpHP17,689new5613
 
2020-05-27 14:04:29K4FNCWopsTSingle OpLP5,180new5613
2020-05-27 14:04:03KM4FOCWopsTSingle OpLP2,916new5613
2020-05-27 14:01:21ND4YCWopsTSingle OpHP4,514new5613
2020-05-27 13:12:08KC4WQCWopsTSingle OpLP100new5613
2020-05-21 04:05:21KM4FOCWopsTSingle OpLP3,534new5594
2020-05-21 04:03:45K4FNCWopsTSingle OpLP7,052new5594
2020-05-21 04:01:03ND4YCWopsTSingle OpHP4,608new5594
2020-05-21 03:21:02KC4WQCWopsTSingle OpLP900new5594
2020-05-21 00:38:45KR4WICWopsTSingle OpHP576new5593
2020-05-20 23:58:35K4FTCWopsTSingle OpLP729update5592
 
2020-05-20 20:19:06K4AVXCWopsTSingle OpHP1,936new5593
2020-05-20 20:18:17K4WWCWopsTSingle OpHP12,544new5593
2020-05-20 20:04:51KM4FOCWopsTSingle OpLP3,304new5593
2020-05-20 20:02:34KE4KYCWopsTSingle OpHP12,321new5593
2020-05-20 20:02:34K4FTCWopsTSingle OpLP2,856new5593
2020-05-20 19:19:18KC4WQCWopsTSingle OpLP400new5593
2020-05-20 14:10:21K4WWCWopsTSingle OpHP18,496new5592
2020-05-20 14:05:04KM4FOCWopsTSingle OpLP4,757new5592
2020-05-20 14:03:39K4FNCWopsTSingle OpLP7,128new5592
2020-05-20 14:01:58W4PFCWopsTSingle OpHP2,703new5592
 
2020-05-20 14:01:23ND4YCWopsTSingle OpHP5,893new5592
2020-05-20 13:11:44KC4WQCWopsTSingle OpLP100new5592
2020-05-17 01:47:24K4AVXHamventionSingle OpHP116new5569
2020-05-17 00:18:09AJ4AHamventionSingle OpHP46new5569
2020-05-17 00:12:25K4WWHamventionSingle OpHP530new5569
2020-05-17 00:11:11KM4FOHamventionSingle OpLP260new5569
2020-05-17 00:00:52K4KCG(ND4Y)HamventionSingle OpHP360new5569
2020-05-16 22:43:22KE4KYHamventionSingle OpHP220new5569
2020-05-14 04:12:02KR4WICWopsTSingle OpHP1,369new5576
2020-05-14 04:05:59KM4FOCWopsTSingle OpLP4,278new5576
 
2020-05-14 04:01:04ND4YCWopsTSingle OpHP5,460new5576
2020-05-14 03:36:37KC4WQCWopsTSingle OpLP400new5576
2020-05-13 20:22:42K4AVXCWopsTSingle OpLP441new5575
2020-05-13 20:18:14K4WWCWopsTSingle OpHP8,366new5575
2020-05-13 20:06:39KM4FOCWopsTSingle OpLP2,703new5575
2020-05-13 20:04:21KE4KYCWopsTSingle OpHP13,225new5575
2020-05-13 20:00:57ND4YCWopsTSingle OpHP4,224new5575
2020-05-13 19:13:20KC4WQCWopsTSingle OpLP576new5575
2020-05-13 14:43:21K4FTCWopsTSingle OpLP2,116new5574
2020-05-13 14:14:51K4WWCWopsTSingle OpHP16,384new5574
 
2020-05-13 14:09:32KR4WICWopsTSingle OpHP729new5574
2020-05-13 14:05:16KM4FOCWopsTSingle OpLP3,481new5574
2020-05-13 14:03:42K4FNCWopsTSingle OpLP7,826new5574
2020-05-13 14:00:35ND4YCWopsTSingle OpHP3,969new5574
2020-05-13 13:12:18KC4WQCWopsTSingle OpLP100new5574
2020-05-10 15:58:30W4LCVolta RTTYSOSB/20LP25,937,600new5563
2020-05-10 13:48:52N4QSCQ-MSOABCWHP36,582new5564
2020-05-10 12:30:53K4WWCQ-MSOSB/20CWHP45,500new5564
2020-05-10 04:01:40KM4FOArQPSOCWLP2,400new5565
2020-05-10 02:36:03ND4YArQPSOMixedLP4,930new5565
 
2020-05-07 04:08:50KM4FOCWopsTSingle OpLP3,186new5559
2020-05-07 04:03:43K4FNCWopsTSingle OpLP8,091new5559
2020-05-07 03:32:07KC4WQCWopsTSingle OpLP1,520new5559
2020-05-06 21:43:04K4WWCWopsTSingle OpHP9,216update5558
2020-05-06 20:52:41K4AVXCWopsTSingle OpHP2,601new5558
2020-05-06 20:09:19KM4FOCWopsTSingle OpLP1,849new5558
2020-05-06 20:03:03K4FTCWopsTSingle OpLP4,290new5558
2020-05-06 20:02:09KE4KYCWopsTSingle OpHP10,816new5558
2020-05-06 19:48:52KC4WQCWopsTSingle OpLP900new5558
2020-05-06 19:33:15W4PFCWopsTSingle OpHP841new5558
 
2020-05-06 14:08:23K4WWCWopsTSingle OpHP11,639new5557
2020-05-06 14:05:39KM4FOCWopsTSingle OpLP2,209new5557
2020-05-06 14:04:50K4FNCWopsTSingle OpLP6,232new5557
2020-05-06 14:03:30W4PFCWopsTSingle OpHP1,845new5557
2020-05-06 14:01:21ND4YCWopsTSingle OpHP3,712new5557
2020-05-06 13:31:06KC4WQCWopsTSingle OpLP400new5557
2020-05-04 15:34:57K4FNDeQPSingle OpLP640new5546
2020-05-04 15:33:15K4FNNewEngQPSingle OpLP3,968new5547
2020-05-04 15:31:10K4FNInQPSingle OpLP616new5545
2020-05-04 15:29:04K4FN7QPSO(A)CWLP22,125new5544
 
2020-05-04 01:22:42ND4Y7QPSOMixedHP17,304new5544
2020-05-04 01:20:49ND4YInQPSingle OpHP2,400new5545
2020-05-04 01:19:02ND4YNewEngQPSingle OpHP9,640new5547
2020-05-04 01:17:06ND4YDeQPSingle OpHP560new5546
2020-05-03 20:49:09KM4FOInQPSingle OpLP440new5545
2020-05-03 20:47:57KM4FONewEngQPSingle OpLP11,096new5547
2020-05-03 20:46:57KM4FODeQPSingle OpLP800new5546
2020-05-03 20:45:04KM4FO7QPSOCWLP12,285new5544
2020-05-03 19:46:59K4WWNewEngQPSingle OpLP8,400new5547
2020-05-03 12:26:06K4WWARISO CWHP42,966new5543
 
2020-05-03 12:04:41N4QSARISO MixedHP10,842new5543
2020-05-02 15:39:11K4FNFlQPSOAB(A)CWLP440new5529
2020-04-30 04:06:06KM4FOCWopsTSingle OpLP3,465new5537
2020-04-30 04:03:27K4FNCWopsTSingle OpLP11,009new5537
2020-04-30 03:21:57KC4WQCWopsTSingle OpLP1,089new5537
2020-04-30 00:58:23K4AVXCWopsTSingle OpHP2,601new5536
2020-04-29 20:18:19K4WWCWopsTSingle OpHP11,881new5536
2020-04-29 20:10:52KM4FOCWopsTSingle OpLP2,544new5536
2020-04-29 20:02:58K4FTCWopsTSingle OpLP289new5536
2020-04-29 20:02:51K4FNCWopsTSingle OpLP9,898new5536
 
2020-04-29 20:02:17KE4KYCWopsTSingle OpHP11,664new5536
2020-04-29 19:43:57KC4WQCWopsTSingle OpLP5,625new5536
2020-04-29 14:10:10K4WWCWopsTSingle OpHP13,431new5535
2020-04-29 14:09:16KM4FOCWopsTSingle OpLP2,300new5535
2020-04-29 14:05:09K4FNCWopsTSingle OpLP11,660new5535
2020-04-29 14:01:46K4FTCWopsTSingle OpLP2,496new5535
2020-04-29 13:57:40KC4WQCWopsTSingle OpLP676new